Theta_e
293 293 293 293 292 292 292 291 291 291 290 290 290 290 289 288 288 287 287 286 286 286 286 286 286 286 286 285 285 284 283 282 282 282 282 281 281 281 281 281 281 281
293 292 292 292 292 292 292 291 291 291 291 290 290 290 289 288 287 287 286 286 286 286 286 286 285 285 285 285 284 283 283 282 282 281 281 281 281 280 280 280 280 280
292 292 292 292 292 291 291 291 291 291 291 290 290 289 288 288 287 287 286 286 286 285 285 285 284 284 284 284 284 283 282 281 281 281 280 280 280 280 280 280 280 280
292 292 292 292 291 291 291 291 291 290 290 290 289 288 288 288 287 286 286 286 285 285 285 285 284 284 284 284 283 282 281 281 281 280 280 280 280 279 279 279 279 279
291 291 291 291 291 291 291 291 291 290 290 289 289 288 288 287 287 286 286 285 285 285 285 284 284 284 283 283 282 281 281 281 280 280 280 279 279 279 278 278 278 278
291 291 291 291 290 290 290 290 290 290 289 289 288 288 287 287 286 286 286 285 285 285 285 284 283 283 283 282 282 281 281 280 280 279 279 279 278 278 278 278 277 277
290 290 290 290 290 290 290 290 289 289 289 288 288 287 287 286 286 286 285 285 285 285 285 284 283 283 283 282 281 281 280 280 279 278 278 278 278 277 277 277 276 276
290 290 289 289 289 289 289 289 289 289 288 288 288 287 286 286 286 285 285 285 285 285 284 283 283 283 282 281 280 280 280 279 278 278 278 277 277 277 276 276 275 275
290 289 289 289 289 288 288 288 288 288 288 288 287 286 286 285 285 285 285 285 285 285 284 283 283 282 281 281 280 280 279 278 278 277 277 277 276 276 275 275 274 274
289 289 288 288 288 288 287 287 287 287 287 287 286 286 285 285 285 285 285 285 285 284 283 282 282 281 280 280 280 279 279 278 278 277 277 276 275 275 275 274 274 273
289 288 288 287 287 287 287 286 286 286 286 286 286 285 285 284 284 284 284 285 284 284 283 282 282 281 280 280 280 279 278 278 277 277 276 275 275 274 274 274 273 273
288 287 287 287 286 286 286 285 285 285 285 285 285 284 284 283 283 284 284 284 284 283 282 282 281 281 280 280 280 279 278 278 277 277 275 274 274 273 273 273 272 272
288 287 286 286 286 285 285 284 284 284 284 284 284 284 283 283 283 283 283 283 283 282 281 281 281 280 280 280 279 278 278 277 277 276 274 273 273 273 272 272 272 272
287 287 286 286 285 284 284 283 283 283 283 283 283 283 283 283 283 283 282 281 281 281 281 280 280 279 279 279 279 278 277 277 276 275 273 272 272 272 272 273 273 273
287 286 286 285 284 283 283 282 282 282 282 282 282 282 282 282 282 282 282 281 280 280 280 279 279 279 279 279 279 278 277 276 275 273 272 272 272 272 273 273 273 273
286 286 285 284 283 283 282 282 281 281 281 281 281 281 281 281 281 281 281 281 280 279 279 279 279 279 279 279 278 277 276 275 274 273 272 272 273 273 273 274 274 274
286 285 284 283 283 282 282 281 281 281 280 280 280 280 280 280 280 279 279 279 279 279 279 279 279 279 279 278 277 277 276 275 274 273 273 273 273 274 274 274 275 275
285 284 283 283 282 281 281 280 280 280 280 279 279 279 279 278 278 278 278 278 278 278 278 279 279 279 278 277 276 276 275 275 274 274 274 274 274 275 275 275 275 274
284 283 282 282 281 281 280 280 279 279 279 279 278 278 278 277 277 277 277 277 278 278 278 278 278 278 278 276 276 275 276 276 275 275 275 275 275 275 275 275 274 274
284 283 282 281 281 280 279 279 278 278 278 278 277 277 276 276 276 276 276 277 277 278 278 278 278 278 277 276 275 275 276 277 276 275 275 275 275 275 275 274 273 273
283 282 281 281 280 279 279 278 278 278 277 277 276 276 275 275 275 275 276 277 277 278 278 278 278 277 276 275 275 275 276 276 276 275 275 275 275 274 274 273 273 273
283 282 281 280 279 278 278 277 277 277 276 276 275 275 275 274 275 275 276 277 277 278 278 278 277 276 275 274 274 275 276 276 276 275 275 274 274 273 273 273 273 274
282 281 280 279 278 277 277 277 276 276 275 275 274 274 273 273 274 275 276 277 278 278 277 277 276 275 274 274 274 275 276 275 275 275 274 274 273 273 273 273 273 273
282 281 280 279 278 277 277 276 276 275 275 274 274 273 273 273 275 276 276 277 278 277 277 276 276 274 274 273 274 275 275 275 274 274 274 273 273 273 273 273 273 274
281 281 280 279 277 277 276 276 275 275 274 274 274 273 273 274 275 276 276 276 277 277 276 276 275 274 273 273 273 275 275 275 274 274 273 273 273 273 273 274 274 274
281 280 279 278 277 277 276 275 275 274 273 273 273 273 273 273 274 275 275 275 275 275 275 275 274 273 272 272 273 274 275 275 274 273 274 274 273 274 274 274 274 273
Wind_Speed
47 47 46 45 44 43 43 43 43 43 43 42 42 40 38 35 32 29 27 24 21 20 18 16 14 12 10 9 9 10 11 12 12 12 12 13 13 14 15 15 15 15
46 46 45 45 45 44 44 44 44 44 43 42 41 39 37 34 31 29 27 24 22 21 19 17 14 12 11 10 10 11 12 12 11 11 12 13 14 14 14 14 14 14
46 46 45 46 47 46 45 44 43 43 43 41 40 38 36 33 31 29 27 25 23 21 19 17 15 13 11 11 11 12 12 12 11 12 13 13 13 13 13 12 13 14
47 47 47 46 45 45 45 44 43 43 42 41 40 38 36 34 32 30 28 26 24 22 20 18 15 13 12 12 12 12 12 12 12 12 13 13 12 12 12 12 13 14
45 45 45 43 42 43 44 45 45 44 42 41 39 38 36 35 34 32 30 27 25 23 20 18 16 14 13 12 12 12 12 12 12 12 12 12 11 12 12 13 13 14
42 42 42 42 41 42 44 45 46 45 43 41 40 39 37 37 35 34 32 29 26 24 21 19 17 15 14 13 13 12 12 12 12 11 12 13 12 13 14 14 14 15
40 40 40 40 41 42 43 43 44 45 44 42 41 40 39 38 37 35 32 29 27 24 22 19 17 16 15 14 13 13 12 13 12 12 13 14 14 15 15 14 15 15
39 38 39 39 40 41 41 42 42 44 44 44 43 42 41 40 37 35 32 29 27 24 22 20 18 17 16 15 14 13 13 13 13 13 14 15 15 15 15 14 14 15
38 37 38 38 38 39 40 41 42 42 44 44 44 42 41 39 37 35 33 30 27 25 23 22 19 18 16 15 14 14 14 14 14 14 15 15 16 15 15 14 14 15
39 38 38 38 39 38 38 39 40 41 42 43 43 42 41 39 37 35 33 31 29 27 25 22 20 18 17 15 14 14 14 14 14 14 15 15 16 15 14 14 14 15
39 38 39 39 39 38 37 37 38 40 41 42 42 42 41 40 37 35 34 32 30 28 26 23 20 18 17 15 14 14 15 14 14 15 15 15 15 15 14 14 14 14
37 38 39 39 39 38 38 38 38 39 41 41 42 42 41 40 38 36 34 32 30 27 24 22 20 18 17 15 15 15 15 14 14 15 15 15 14 14 13 13 14 14
38 39 40 40 40 39 38 38 38 39 40 41 41 41 41 39 38 36 33 31 28 25 23 21 19 18 17 15 15 15 14 14 15 14 15 14 13 13 13 13 14 14
40 39 39 40 40 38 38 38 39 39 40 40 40 40 40 39 38 36 32 29 26 24 22 20 19 18 17 15 15 15 14 14 15 14 14 13 12 13 13 12 13 14
38 38 38 39 39 38 39 39 40 40 41 41 40 40 39 38 37 35 33 30 27 24 23 21 20 18 16 16 15 15 15 15 14 13 13 13 12 12 12 12 12 13
36 37 38 39 39 40 40 41 41 41 42 41 41 40 39 38 36 34 32 30 28 26 24 22 21 18 16 16 15 15 15 14 13 13 12 12 12 11 11 12 11 12
36 38 38 40 40 41 41 42 42 42 42 42 41 40 39 38 36 34 32 30 28 26 25 23 21 18 17 17 16 15 14 13 12 12 12 12 12 11 11 11 10 10
38 39 39 40 40 41 41 42 42 42 42 41 41 40 38 37 36 34 32 30 28 26 24 23 20 18 18 18 17 16 15 14 13 13 13 12 12 12 11 10 10 10
39 39 39 40 40 41 41 41 42 42 42 42 41 39 38 37 35 34 32 30 28 26 24 22 20 19 19 19 17 16 16 15 15 15 13 12 12 12 11 10 10 12
39 39 39 39 40 41 41 42 43 43 42 41 40 39 37 36 35 33 31 30 28 26 24 22 21 20 20 19 17 15 15 16 17 16 14 13 13 12 11 10 11 13
39 39 39 39 40 41 42 42 42 42 41 40 40 39 38 37 36 34 31 30 28 26 24 23 21 21 20 19 18 16 15 16 17 16 15 14 14 13 11 12 13 14
40 40 39 39 41 41 42 42 42 42 41 41 39 38 37 36 35 34 32 30 28 27 25 24 22 21 21 20 18 16 16 17 16 16 16 14 13 12 11 11 13 14
41 41 40 40 41 42 42 42 42 42 42 42 40 38 36 36 35 33 32 31 30 28 26 24 23 22 21 20 17 15 16 17 16 15 14 12 11 11 11 11 13 14
41 42 41 41 42 43 43 42 42 42 42 42 42 40 38 38 37 35 33 31 30 29 26 24 23 22 22 20 17 15 15 16 15 13 12 12 11 11 12 12 13 14
41 41 41 42 43 43 42 42 41 41 41 40 40 40 39 38 37 36 34 32 30 28 26 24 23 23 22 19 16 14 15 14 13 12 11 12 12 11 12 12 13 13
40 41 42 42 42 41 40 40 40 39 40 39 38 38 37 37 37 36 35 33 30 28 26 25 24 23 22 19 16 15 15 14 13 13 12 12 11 12 13 12 11 13
Wind_Direction
208 206 205 204 204 204 203 201 199 198 198 199 200 201 203 204 203 202 201 202 204 205 205 206 209 213 221 233 243 247 249 250 251 251 250 250 252 255 257 260 263 266
210 209 207 205 204 205 205 203 201 200 200 201 203 203 204 204 201 200 201 200 201 203 204 206 209 214 224 232 239 244 245 247 248 247 248 249 251 253 256 260 265 268
211 210 209 207 205 203 203 203 203 203 203 203 204 204 203 201 199 199 200 200 200 201 204 208 212 217 225 232 238 241 242 244 245 243 245 247 248 252 256 260 266 270
213 212 211 211 208 203 201 200 201 203 203 203 202 202 200 198 197 197 198 199 201 203 207 211 215 219 224 230 235 237 238 241 241 240 242 245 247 253 259 264 268 271
215 214 212 212 209 205 201 200 200 201 201 202 200 198 197 195 195 195 196 199 202 205 208 211 214 218 223 228 230 233 235 237 238 237 240 247 252 256 260 263 266 270
217 215 213 212 210 207 204 201 201 200 199 199 197 195 195 194 194 195 197 200 202 205 208 210 213 216 220 224 227 230 232 234 234 234 241 249 254 258 260 264 268 272
217 216 214 212 211 209 206 203 201 200 198 197 195 195 195 194 195 197 199 201 202 205 208 210 212 214 218 222 223 225 228 230 232 234 242 250 255 260 263 267 271 273
217 216 214 212 211 209 207 204 202 199 197 195 194 195 196 196 196 197 199 201 202 205 208 208 211 213 216 218 219 221 224 227 232 236 243 251 255 261 266 269 272 273
216 214 213 212 211 209 208 205 202 199 196 195 194 194 195 197 198 198 198 200 201 204 206 207 209 211 213 216 216 218 222 226 233 239 245 252 256 261 266 269 273 276
213 212 210 210 210 210 209 206 202 198 196 195 194 194 195 196 197 198 198 198 200 202 204 205 207 208 210 213 214 218 224 229 234 240 247 252 257 261 266 270 273 276
210 208 208 208 208 208 208 207 204 200 197 196 195 194 194 195 195 196 198 199 201 202 203 204 206 207 209 210 214 218 224 229 235 242 249 252 256 260 264 269 272 275
208 206 206 205 205 205 206 206 204 201 198 197 196 195 193 194 194 196 198 200 201 202 203 204 205 207 210 210 213 218 222 229 235 241 247 250 255 259 264 269 272 275
206 205 204 203 203 204 202 202 202 201 199 197 197 195 194 194 194 196 198 199 201 201 202 204 205 206 209 208 211 218 222 228 234 238 244 248 253 260 266 272 274 275
206 204 202 201 201 200 199 199 199 199 199 197 197 196 195 195 195 195 196 197 199 200 201 203 204 205 206 207 211 218 222 225 230 235 242 248 255 264 269 271 273 274
203 201 200 199 197 196 196 196 196 196 197 196 196 196 196 196 196 196 195 194 195 198 199 200 204 205 204 205 210 215 218 223 228 231 237 248 256 262 263 261 261 266
200 198 196 195 194 194 194 194 194 194 194 195 195 195 196 196 196 195 195 194 193 194 196 199 203 203 200 203 207 210 214 217 222 228 236 246 252 250 251 254 256 260
196 195 194 193 193 193 192 191 192 192 192 193 194 194 195 194 194 193 192 193 193 193 196 199 200 198 195 199 203 205 213 218 220 229 236 236 240 244 248 258 263 265
194 193 192 192 192 191 190 190 190 190 190 191 191 192 192 191 191 192 191 191 192 193 195 198 196 193 192 196 199 199 209 222 224 225 228 229 234 243 251 260 268 269
193 191 190 191 190 189 189 188 187 188 188 190 190 190 190 190 190 190 190 190 191 191 194 195 191 189 191 193 194 195 202 215 222 221 223 231 237 242 250 259 268 273
191 190 189 189 189 187 187 186 187 188 188 189 188 188 187 188 188 188 187 188 190 191 192 193 189 188 191 192 191 197 203 208 218 224 226 232 233 236 250 261 267 272
190 190 189 188 187 186 186 186 186 187 186 187 187 187 187 188 187 187 187 187 189 191 191 190 188 187 190 192 192 197 203 207 216 222 223 226 231 239 254 262 265 269
190 189 188 187 185 184 185 185 186 186 186 186 186 186 187 187 186 186 186 186 187 189 190 188 185 186 190 193 194 197 203 208 213 217 220 229 238 247 254 257 262 268
190 188 187 186 185 185 185 186 186 185 186 185 184 183 184 184 185 185 186 187 186 187 189 186 183 187 192 192 193 198 203 207 213 217 224 234 243 248 253 258 264 268
191 189 188 186 186 187 186 186 185 185 185 185 184 183 183 184 184 184 184 187 187 186 187 185 183 188 193 191 192 197 202 208 214 217 225 238 245 251 259 265 268 270
191 190 189 188 188 189 187 185 185 184 184 184 184 183 182 182 183 182 181 184 186 185 185 185 185 188 190 189 190 196 203 208 212 217 229 240 247 256 264 268 271 275
191 191 191 191 190 189 187 185 184 183 182 183 183 182 180 178 179 179 179 180 181 182 183 185 186 186 185 184 187 195 201 206 212 221 232 242 254 262 265 269 276 280